Regional Weather Roundup
Issued by NWS

Home | Current Version | Previous Version | Text Only | Print | Product List | Glossary Off
Versions: 1 2 3 4 5 6 7 8 9 10 11 12 13 14 15 16 17 18 19 20 21 22 23 24 25 26 27 28 29 30 31 32 33 34 35 36 37 38 39 40 41 42 43 44 45 46 47 48 49 50

000
ASUS45 KSLC 250110
RWRUT

UTAH REGIONAL WEATHER ROUNDUP
NATIONAL WEATHER SERVICE SALT LAKE CITY UT
700 PM MDT THU JUL 24 2014

UTZ001>011-023>025-250200-

NORTHERN UTAH

CITY           SKY/WX    TMP DP  RH WIND       PRES   REMARKS
HILL AFB       SUNNY     91  32  12 N9        30.00F
LOGAN          SUNNY     86  44  23 N16       30.00S
OGDEN          SUNNY     93  32  11 N8        29.97F
PROVO AIRPORT  MOSUNNY   88  50  27 NW13      29.96S
SALT LAKE CITY PTSUNNY   92  29  10 NW14      29.95F
VERNAL         MOSUNNY   86  51  29 SE10      30.03F
WENDOVER       SUNNY     91  32  12 E10       29.96S
HEBER CITY     MOSUNNY   90  36  14 NW5       30.03S
WEST JORDAN    SUNNY     91  46  21 NW9       29.99F

$$

UTZ012>022-026-027-250200-

SOUTHERN UTAH

CITY           SKY/WX    TMP DP  RH WIND       PRES   REMARKS
BRYCE CANYON   PTSUNNY   84  39  20 SW9       30.27F
CEDAR CITY     SUNNY     92  34  13 S10G20    30.06F
MILFORD        SUNNY     97  33  10 S17       29.98F HX  91
MOAB/CYNLANDS  SUNNY     95  42  16 VRB3      29.97F HX  91
PRICE          MOSUNNY   90  43  19 S15       30.08F
ST GEORGE      PTCLDY   106  46  13 SW9       29.83S HX 102

$$

REGIONAL REPORTS     COLORADO/ARIZONA

CITY           SKY/WX    TMP DP  RH WIND       PRES   REMARKS
CRAIG, CO      PTSUNNY   71  51  49 SW7       30.14R
GRAND JUNCTION PTSUNNY   84  52  33 S23       30.04R
RIFLE          PTSUNNY   82  54  37 SE23G30   30.10F
MONTROSE       PTSUNNY   75  55  49 SE22      30.22F
CORTEZ         MOSUNNY   83  50  31 S17       30.16S
PAGE, AZ       PTSUNNY   96  46  18 S17G25    29.98F HX  92
GRAND CANYON   LGT RAIN  65  60  84 W9        30.29R
KINGMAN        PTSUNNY   94  53  25 SE31G37   29.94F HX  91
FLAGSTAFF      CLOUDY    65  56  72 NW6       30.31S

$$

REGIONAL REPORTS    NEVADA/IDAHO/WYOMING

CITY           SKY/WX    TMP DP  RH WIND       PRES   REMARKS
LAS VEGAS, NV  MOSUNNY  109  31   7 W13G25    29.71F HX 101
ELY            SUNNY     91  17   6 S14G26    30.07F
ELKO           SUNNY     87  22   9 W10       30.04F
POCATELLO, ID  SUNNY     77  30  17 SW15G24   30.08F
BURLEY           N/A     72  39  30 W12G17    30.08F
EVANSTON, WY   MOSUNNY   81  32  17 W18G25    30.19S
ROCK SPRINGS   MOSUNNY   86  31  13 W20G32    30.11S

$$



USA.gov is the U.S. government's official web portal to all federal, state and local government web resources and services.